Regional Weather Roundup
Issued by NWS

Home | Current Version | Previous Version | Text Only | Print | Product List | Glossary Off
Versions: 1 2 3 4 5 6 7 8 9 10 11 12 13 14 15 16 17 18 19 20 21 22 23 24 25 26 27 28 29 30 31 32 33 34 35 36 37 38 39 40 41 42 43 44 45 46 47 48 49 50

000
ASUS43 KFSD 041310
RWRSD

WEATHER ROUNDUP FOR SOUTH DAKOTA
NATIONAL WEATHER SERVICE SIOUX FALLS SD
800 AM CDT WED MAY 04 2016

NOTE: "FAIR" INDICATES FEW OR NO CLOUDS BELOW 12,000 FEET WITH NO
SIGNIFICANT WEATHER AND/OR OBSTRUCTIONS TO VISIBILITY.


SDZ001>005-009-010-012>017-041400-
NORTHWEST AND NORTH CENTRAL SOUTH DAKOTA

CITY           SKY/WX    TMP DP  RH WIND       PRES   REMARKS
BUFFALO          N/A     52  40  63 CALM      30.08R
FAITH            N/A     49  36  61 S9        30.14R
MOBRIDGE       SUNNY     48  38  68 N6        30.11R
$$

SDZ012>016-024>037-041>051-057-063-072>074-041400-
SOUTHWEST AND SOUTH CENTRAL SOUTH DAKOTA

CITY           SKY/WX    TMP DP  RH WIND       PRES   REMARKS
RAPID CTY ARPT SUNNY     51  39  63 NW6       30.16R
PIERRE         SUNNY     48  37  65 CALM      30.13R
CUSTER         SUNNY     46  34  62 CALM      30.24R
ELLSWORTH AFB  SUNNY     48  40  73 W5        30.16R
PHILIP         SUNNY     41  39  93 W5        30.15R
PINE RIDGE     SUNNY     40  36  86 CALM      30.17R
WINNER         FAIR      45  37  73 W5        30.14R
$$

SDZ004>011-016>023-039-040-041400-
NORTHEAST SOUTH DAKOTA

CITY           SKY/WX    TMP DP  RH WIND       PRES   REMARKS
ABERDEEN       SUNNY     45  35  68 N9        30.12R
WATERTOWN      SUNNY     47  35  63 NW7       30.07R
BROOKINGS      SUNNY     43  34  70 NW7       30.06
SISSETON         N/A     47  33  58 N15       30.08R
$$

SDZ017-020-022-023-036>040-048>070-041400-
SOUTHEAST SOUTH DAKOTA

CITY           SKY/WX    TMP DP  RH WIND       PRES   REMARKS
SIOUX FALLS    SUNNY     48  36  63 N9        30.07R
HURON          SUNNY     44  35  70 W13G20    30.11R
CHAMBERLAIN    SUNNY     48  37  67 NW7       30.12S
MITCHELL       SUNNY     45  37  73 N8        30.11R
YANKTON        SUNNY     46  36  66 NW15      30.08R
$$

ABBREVIATIONS USED IN REMARKS
   TC - TEMPERATURE IN CELSIUS
  WCI - WIND CHILL INDEX
   HX - HEAT INDEX
  VSB - VISIBILITY




USA.gov is the U.S. government's official web portal to all federal, state and local government web resources and services.